^^
Daily Summary for August 13, 2021 Units:  Both    English   Metric
Daily Weekly Monthly Yearly Custom
  High: Low: Average:
Temperature: 95.0 °F /  35 °C 67.0 °F /  19.4 °C 78.8 °F /  26 °C
Dew Point: 54.0 °F /  12.2 °C 46.0 °F /  7.8 °C 49.6 °F /  9.8 °C
Humidity: 53% 23% 38%
Wind Speed: 16mph /  25.7km/h - 3.8mph /  6.1km/h
Wind Gust: 16mph /  25.7km/h - -
Wind- - SSW
Pressure: 30.1 in /  1019.2 hPa 30.0 in /  1015.8 hPa -
Precipitation: 0.000 in /  0 mm    
Historical Graphs
 
 
Tabular Data for August 13, 2021
Time Temperature Dew Point Pressure Wind Wind Speed Wind Gust Humidity Rainfall Rate (Hourly) solar
00:04 75.0 °F /  23.9 °C 50.0 °F /  10 °C 30.0in /  1015.8hPa ESE 2mph /  3.2km/h 2mph /  3.2km/h 42% 0.000in /  0mm 0.00 W/m2
00:09 75.0 °F /  23.9 °C 50.0 °F /  10 °C 30.0in /  1015.8hPa ESE 4mph /  6.4km/h 2mph /  3.2km/h 42% 0.000in /  0mm 0.00 W/m2
00:14 74.0 °F /  23.3 °C 50.0 °F /  10 °C 30.0in /  1015.8hPa SE 5mph /  8km/h 3mph /  4.8km/h 42% 0.000in /  0mm 0.00 W/m2
00:19 74.0 °F /  23.3 °C 49.0 °F /  9.4 °C 30.0in /  1015.8hPa SSE 6mph /  9.7km/h 6mph /  9.7km/h 41% 0.000in /  0mm 0.00 W/m2
00:24 74.0 °F /  23.3 °C 49.0 °F /  9.4 °C 30.0in /  1015.8hPa SE 4mph /  6.4km/h 2mph /  3.2km/h 41% 0.000in /  0mm 0.00 W/m2
00:29 74.0 °F /  23.3 °C 49.0 °F /  9.4 °C 30.0in /  1015.8hPa SE 4mph /  6.4km/h 3mph /  4.8km/h 42% 0.000in /  0mm 0.00 W/m2
00:34 74.0 °F /  23.3 °C 50.0 °F /  10 °C 30.0in /  1015.8hPa Calm     43% 0.000in /  0mm 0.00 W/m2
00:39 74.0 °F /  23.3 °C 50.0 °F /  10 °C 30.0in /  1015.8hPa SE 2mph /  3.2km/h 2mph /  3.2km/h 43% 0.000in /  0mm 0.00 W/m2
00:44 73.0 °F /  22.8 °C 50.0 °F /  10 °C 30.0in /  1015.8hPa SE 2mph /  3.2km/h   43% 0.000in /  0mm 0.00 W/m2
00:49 73.0 °F /  22.8 °C 49.0 °F /  9.4 °C 30.0in /  1015.8hPa Calm   2mph /  3.2km/h 43% 0.000in /  0mm 0.00 W/m2
00:54 73.0 °F /  22.8 °C 49.0 °F /  9.4 °C 30.0in /  1015.8hPa SSE 4mph /  6.4km/h 3mph /  4.8km/h 43% 0.000in /  0mm 0.00 W/m2
00:59 73.0 °F /  22.8 °C 49.0 °F /  9.4 °C 30.0in /  1015.8hPa SSE 2mph /  3.2km/h 3mph /  4.8km/h 43% 0.000in /  0mm 0.00 W/m2
01:04 73.0 °F /  22.8 °C 49.0 °F /  9.4 °C 30.0in /  1015.8hPa Calm   2mph /  3.2km/h 43% 0.000in /  0mm 0.00 W/m2
01:09 72.0 °F /  22.2 °C 48.0 °F /  8.9 °C 30.0in /  1015.8hPa SSE 2mph /  3.2km/h   42% 0.000in /  0mm 0.00 W/m2
01:14 72.0 °F /  22.2 °C 47.0 °F /  8.3 °C 30.0in /  1015.8hPa SSE 2mph /  3.2km/h 2mph /  3.2km/h 41% 0.000in /  0mm 0.00 W/m2
01:19 72.0 °F /  22.2 °C 48.0 °F /  8.9 °C 30.0in /  1015.8hPa Calm     42% 0.000in /  0mm 0.00 W/m2
01:24 72.0 °F /  22.2 °C 47.0 °F /  8.3 °C 30.0in /  1015.8hPa Calm     41% 0.000in /  0mm 0.00 W/m2
01:29 72.0 °F /  22.2 °C 47.0 °F /  8.3 °C 30.0in /  1015.8hPa Calm     41% 0.000in /  0mm 0.00 W/m2
01:34 72.0 °F /  22.2 °C 47.0 °F /  8.3 °C 30.0in /  1015.8hPa Calm     41% 0.000in /  0mm 0.00 W/m2
01:39 72.0 °F /  22.2 °C 47.0 °F /  8.3 °C 30.0in /  1015.8hPa Calm     41% 0.000in /  0mm 0.00 W/m2
01:44 71.0 °F /  21.7 °C 47.0 °F /  8.3 °C 30.0in /  1015.8hPa Calm     41% 0.000in /  0mm 0.00 W/m2
01:49 71.0 °F /  21.7 °C 46.0 °F /  7.8 °C 30.0in /  1015.8hPa Calm     41% 0.000in /  0mm 0.00 W/m2
01:53 71.0 °F /  21.7 °C 46.0 °F /  7.8 °C 30.0in /  1015.8hPa Calm     41% 0.000in /  0mm 0.00 W/m2
01:59 71.0 °F /  21.7 °C 46.0 °F /  7.8 °C 30.0in /  1015.8hPa Calm     41% 0.000in /  0mm 0.00 W/m2
02:04 71.0 °F /  21.7 °C 47.0 °F /  8.3 °C 30.0in /  1015.8hPa Calm     42% 0.000in /  0mm 0.00 W/m2
02:09 71.0 °F /  21.7 °C 46.0 °F /  7.8 °C 30.0in /  1015.8hPa Calm     42% 0.000in /  0mm 0.00 W/m2
02:14 70.0 °F /  21.1 °C 47.0 °F /  8.3 °C 30.0in /  1015.8hPa Calm     43% 0.000in /  0mm 0.00 W/m2
02:19 70.0 °F /  21.1 °C 47.0 °F /  8.3 °C 30.0in /  1015.8hPa Calm     43% 0.000in /  0mm 0.00 W/m2
02:24 70.0 °F /  21.1 °C 47.0 °F /  8.3 °C 30.0in /  1015.8hPa Calm     43% 0.000in /  0mm 0.00 W/m2
02:29 70.0 °F /  21.1 °C 46.0 °F /  7.8 °C 30.0in /  1015.8hPa Calm     43% 0.000in /  0mm 0.00 W/m2
02:34 70.0 °F /  21.1 °C 47.0 °F /  8.3 °C 30.0in /  1015.8hPa Calm     44% 0.000in /  0mm 0.00 W/m2
02:39 70.0 °F /  21.1 °C 47.0 °F /  8.3 °C 30.0in /  1015.8hPa Calm     44% 0.000in /  0mm 0.00 W/m2
02:44 70.0 °F /  21.1 °C 47.0 °F /  8.3 °C 30.0in /  1015.8hPa Calm     45% 0.000in /  0mm 0.00 W/m2
02:49 69.0 °F /  20.6 °C 48.0 °F /  8.9 °C 30.0in /  1015.8hPa Calm     46% 0.000in /  0mm 0.00 W/m2
02:54 69.0 °F /  20.6 °C 48.0 °F /  8.9 °C 30.0in /  1015.8hPa Calm     46% 0.000in /  0mm 0.00 W/m2
02:59 69.0 °F /  20.6 °C 48.0 °F /  8.9 °C 30.0in /  1015.8hPa SSE 2mph /  3.2km/h   46% 0.000in /  0mm 0.00 W/m2
03:04 69.0 °F /  20.6 °C 48.0 °F /  8.9 °C 30.0in /  1015.8hPa Calm   2mph /  3.2km/h 46% 0.000in /  0mm 0.00 W/m2
03:09 69.0 °F /  20.6 °C 48.0 °F /  8.9 °C 30.0in /  1015.8hPa SE 2mph /  3.2km/h 1mph /  1.6km/h 46% 0.000in /  0mm 0.00 W/m2
03:14 69.0 °F /  20.6 °C 48.0 °F /  8.9 °C 30.0in /  1015.8hPa SE 2mph /  3.2km/h 2mph /  3.2km/h 46% 0.000in /  0mm 0.00 W/m2
03:19 69.0 °F /  20.6 °C 48.0 °F /  8.9 °C 30.0in /  1015.8hPa SE 2mph /  3.2km/h 2mph /  3.2km/h 46% 0.000in /  0mm 0.00 W/m2
03:24 70.0 °F /  21.1 °C 48.0 °F /  8.9 °C 30.0in /  1015.8hPa SE 2mph /  3.2km/h 2mph /  3.2km/h 46% 0.000in /  0mm 0.00 W/m2
03:29 70.0 °F /  21.1 °C 47.0 °F /  8.3 °C 30.0in /  1015.8hPa Calm     45% 0.000in /  0mm 0.00 W/m2
03:34 70.0 °F /  21.1 °C 49.0 °F /  9.4 °C 30.0in /  1015.8hPa Calm     47% 0.000in /  0mm 0.00 W/m2
03:39 70.0 °F /  21.1 °C 49.0 °F /  9.4 °C 30.0in /  1015.8hPa SE 2mph /  3.2km/h   47% 0.000in /  0mm 0.00 W/m2
03:44 70.0 °F /  21.1 °C 48.0 °F /  8.9 °C 30.0in /  1015.8hPa Calm   2mph /  3.2km/h 46% 0.000in /  0mm 0.00 W/m2
03:49 70.0 °F /  21.1 °C 48.0 °F /  8.9 °C 30.0in /  1015.8hPa Calm     45% 0.000in /  0mm 0.00 W/m2
03:54 71.0 °F /  21.7 °C 48.0 °F /  8.9 °C 30.0in /  1015.8hPa Calm     45% 0.000in /  0mm 0.00 W/m2
03:59 71.0 °F /  21.7 °C 48.0 °F /  8.9 °C 30.0in /  1015.8hPa Calm     45% 0.000in /  0mm 0.00 W/m2
04:04 71.0 °F /  21.7 °C 48.0 °F /  8.9 °C 30.0in /  1015.8hPa Calm     45% 0.000in /  0mm 0.00 W/m2
04:09 71.0 °F /  21.7 °C 48.0 °F /  8.9 °C 30.0in /  1015.8hPa Calm     45% 0.000in /  0mm 0.00 W/m2
04:14 71.0 °F /  21.7 °C 48.0 °F /  8.9 °C 30.0in /  1015.8hPa Calm     44% 0.000in /  0mm 0.00 W/m2
04:19 70.0 °F /  21.1 °C 48.0 °F /  8.9 °C 30.0in /  1015.8hPa Calm     45% 0.000in /  0mm 0.00 W/m2
04:24 70.0 °F /  21.1 °C 49.0 °F /  9.4 °C 30.0in /  1015.8hPa Calm     46% 0.000in /  0mm 0.00 W/m2
04:29 70.0 °F /  21.1 °C 48.0 °F /  8.9 °C 30.0in /  1015.8hPa Calm     45% 0.000in /  0mm 0.00 W/m2
04:34 70.0 °F /  21.1 °C 48.0 °F /  8.9 °C 30.0in /  1015.8hPa Calm     45% 0.000in /  0mm 0.00 W/m2
04:39 70.0 °F /  21.1 °C 48.0 °F /  8.9 °C 30.0in /  1015.8hPa Calm     46% 0.000in /  0mm 0.00 W/m2
04:44 70.0 °F /  21.1 °C 48.0 °F /  8.9 °C 30.0in /  1015.8hPa Calm     46% 0.000in /  0mm 0.00 W/m2
04:49 70.0 °F /  21.1 °C 48.0 °F /  8.9 °C 30.0in /  1015.8hPa Calm     46% 0.000in /  0mm 0.00 W/m2
04:54 70.0 °F /  21.1 °C 48.0 °F /  8.9 °C 30.0in /  1015.8hPa Calm     46% 0.000in /  0mm 0.00 W/m2
04:59 70.0 °F /  21.1 °C 49.0 °F /  9.4 °C 30.0in /  1015.8hPa Calm     47% 0.000in /  0mm 0.00 W/m2
05:04 70.0 °F /  21.1 °C 48.0 °F /  8.9 °C 30.0in /  1015.8hPa Calm     46% 0.000in /  0mm 0.00 W/m2
05:09 70.0 °F /  21.1 °C 48.0 °F /  8.9 °C 30.0in /  1015.8hPa Calm     46% 0.000in /  0mm 0.00 W/m2
05:14 69.0 °F /  20.6 °C 48.0 °F /  8.9 °C 30.0in /  1015.8hPa Calm     46% 0.000in /  0mm 0.00 W/m2
05:19 69.0 °F /  20.6 °C 48.0 °F /  8.9 °C 30.0in /  1015.8hPa Calm     46% 0.000in /  0mm 0.00 W/m2
05:24 69.0 °F /  20.6 °C 48.0 °F /  8.9 °C 30.0in /  1015.8hPa Calm     47% 0.000in /  0mm 0.00 W/m2
05:29 69.0 °F /  20.6 °C 48.0 °F /  8.9 °C 30.0in /  1015.8hPa Calm     47% 0.000in /  0mm 0.00 W/m2
05:34 69.0 °F /  20.6 °C 47.0 °F /  8.3 °C 30.0in /  1015.8hPa Calm     46% 0.000in /  0mm 0.00 W/m2
05:39 69.0 °F /  20.6 °C 47.0 °F /  8.3 °C 30.0in /  1015.8hPa Calm     46% 0.000in /  0mm 0.00 W/m2
05:44 69.0 °F /  20.6 °C 47.0 °F /  8.3 °C 30.0in /  1015.8hPa Calm     46% 0.000in /  0mm 0.00 W/m2
05:49 69.0 °F /  20.6 °C 48.0 °F /  8.9 °C 30.0in /  1015.8hPa Calm     47% 0.000in /  0mm 0.00 W/m2
05:54 69.0 °F /  20.6 °C 48.0 °F /  8.9 °C 30.0in /  1015.8hPa Calm     47% 0.000in /  0mm 0.00 W/m2
05:59 69.0 °F /  20.6 °C 49.0 °F /  9.4 °C 30.0in /  1015.8hPa Calm     49% 0.000in /  0mm 0.00 W/m2
06:04 68.0 °F /  20 °C 48.0 °F /  8.9 °C 30.0in /  1015.8hPa ESE 4mph /  6.4km/h 2mph /  3.2km/h 49% 0.000in /  0mm 0.00 W/m2
06:09 68.0 °F /  20 °C 48.0 °F /  8.9 °C 30.0in /  1015.8hPa ESE 4mph /  6.4km/h 3mph /  4.8km/h 49% 0.000in /  0mm 0.00 W/m2
06:14 68.0 °F /  20 °C 49.0 °F /  9.4 °C 30.0in /  1015.8hPa Calm   3mph /  4.8km/h 50% 0.000in /  0mm 0.00 W/m2
06:19 68.0 °F /  20 °C 48.0 °F /  8.9 °C 30.0in /  1015.8hPa Calm     49% 0.000in /  0mm 0.00 W/m2
06:24 68.0 °F /  20 °C 48.0 °F /  8.9 °C 30.0in /  1015.8hPa ESE 2mph /  3.2km/h 1mph /  1.6km/h 49% 0.000in /  0mm 0.00 W/m2
06:29 68.0 °F /  20 °C 47.0 °F /  8.3 °C 30.0in /  1015.8hPa ESE 2mph /  3.2km/h 2mph /  3.2km/h 48% 0.000in /  0mm 5.00 W/m2
06:34 68.0 °F /  20 °C 47.0 °F /  8.3 °C 30.0in /  1015.8hPa Calm   2mph /  3.2km/h 48% 0.000in /  0mm 9.00 W/m2
06:39 67.0 °F /  19.4 °C 47.0 °F /  8.3 °C 30.0in /  1015.8hPa ESE 2mph /  3.2km/h   49% 0.000in /  0mm 12.00 W/m2
06:44 67.0 °F /  19.4 °C 47.0 °F /  8.3 °C 30.0in /  1015.8hPa ESE 2mph /  3.2km/h 2mph /  3.2km/h 48% 0.000in /  0mm 16.00 W/m2
06:49 67.0 °F /  19.4 °C 47.0 °F /  8.3 °C 30.0in /  1015.8hPa Calm     48% 0.000in /  0mm 19.00 W/m2
06:54 67.0 °F /  19.4 °C 47.0 °F /  8.3 °C 30.0in /  1015.8hPa Calm     49% 0.000in /  0mm 23.00 W/m2
06:59 67.0 °F /  19.4 °C 47.0 °F /  8.3 °C 30.0in /  1015.8hPa Calm     49% 0.000in /  0mm 26.00 W/m2
07:04 67.0 °F /  19.4 °C 48.0 °F /  8.9 °C 30.0in /  1015.8hPa Calm     50% 0.000in /  0mm 32.00 W/m2
07:09 67.0 °F /  19.4 °C 48.0 °F /  8.9 °C 30.0in /  1015.8hPa Calm     50% 0.000in /  0mm 35.00 W/m2
07:14 67.0 °F /  19.4 °C 48.0 °F /  8.9 °C 30.0in /  1015.8hPa ESE 2mph /  3.2km/h 2mph /  3.2km/h 50% 0.000in /  0mm 39.00 W/m2
07:19 67.0 °F /  19.4 °C 48.0 °F /  8.9 °C 30.0in /  1015.8hPa Calm     50% 0.000in /  0mm 44.00 W/m2
07:24 67.0 °F /  19.4 °C 48.0 °F /  8.9 °C 30.0in /  1015.8hPa ESE 4mph /  6.4km/h 1mph /  1.6km/h 50% 0.000in /  0mm 47.00 W/m2
07:29 67.0 °F /  19.4 °C 49.0 °F /  9.4 °C 30.0in /  1015.8hPa Calm   3mph /  4.8km/h 52% 0.000in /  0mm 53.00 W/m2
07:34 67.0 °F /  19.4 °C 49.0 °F /  9.4 °C 30.0in /  1015.8hPa Calm     52% 0.000in /  0mm 58.00 W/m2
07:39 67.0 °F /  19.4 °C 48.0 °F /  8.9 °C 30.0in /  1015.8hPa Calm     51% 0.000in /  0mm 65.00 W/m2
07:44 67.0 °F /  19.4 °C 48.0 °F /  8.9 °C 30.0in /  1015.8hPa Calm     50% 0.000in /  0mm 70.00 W/m2
07:49 67.0 °F /  19.4 °C 49.0 °F /  9.4 °C 30.0in /  1015.8hPa Calm     53% 0.000in /  0mm 77.00 W/m2
07:54 67.0 °F /  19.4 °C 49.0 °F /  9.4 °C 30.0in /  1015.8hPa Calm     53% 0.000in /  0mm 81.00 W/m2
07:59 68.0 °F /  20 °C 49.0 °F /  9.4 °C 30.0in /  1015.8hPa Calm     52% 0.000in /  0mm 84.00 W/m2
08:04 68.0 °F /  20 °C 49.0 °F /  9.4 °C 30.1in /  1019.2hPa Calm     52% 0.000in /  0mm 88.00 W/m2
08:09 68.0 °F /  20 °C 49.0 °F /  9.4 °C 30.1in /  1019.2hPa Calm     52% 0.000in /  0mm 95.00 W/m2
08:14 68.0 °F /  20 °C 49.0 °F /  9.4 °C 30.1in /  1019.2hPa SSE 6mph /  9.7km/h 2mph /  3.2km/h 51% 0.000in /  0mm 105.00 W/m2
08:19 69.0 °F /  20.6 °C 49.0 °F /  9.4 °C 30.1in /  1019.2hPa SSE 2mph /  3.2km/h 6mph /  9.7km/h 50% 0.000in /  0mm 104.00 W/m2
08:23 69.0 °F /  20.6 °C 49.0 °F /  9.4 °C 30.1in /  1019.2hPa South 4mph /  6.4km/h 2mph /  3.2km/h 49% 0.000in /  0mm 113.00 W/m2
08:29 69.0 °F /  20.6 °C 48.0 °F /  8.9 °C 30.1in /  1019.2hPa SSW 6mph /  9.7km/h 3mph /  4.8km/h 47% 0.000in /  0mm 176.00 W/m2
08:34 70.0 °F /  21.1 °C 48.0 °F /  8.9 °C 30.1in /  1019.2hPa SSW 6mph /  9.7km/h 6mph /  9.7km/h 46% 0.000in /  0mm 190.00 W/m2
08:39 70.0 °F /  21.1 °C 49.0 °F /  9.4 °C 30.1in /  1019.2hPa SSW 2mph /  3.2km/h 3mph /  4.8km/h 47% 0.000in /  0mm 190.00 W/m2
08:44 71.0 °F /  21.7 °C 49.0 °F /  9.4 °C 30.1in /  1019.2hPa Calm   2mph /  3.2km/h 46% 0.000in /  0mm 295.00 W/m2
08:49 71.0 °F /  21.7 °C 48.0 °F /  8.9 °C 30.1in /  1019.2hPa Calm     45% 0.000in /  0mm 295.00 W/m2
08:54 71.0 °F /  21.7 °C 48.0 °F /  8.9 °C 30.1in /  1019.2hPa SSW 2mph /  3.2km/h 1mph /  1.6km/h 44% 0.000in /  0mm 316.00 W/m2
08:59 72.0 °F /  22.2 °C 49.0 °F /  9.4 °C 30.1in /  1019.2hPa South 4mph /  6.4km/h 2mph /  3.2km/h 44% 0.000in /  0mm 334.00 W/m2
09:04 72.0 °F /  22.2 °C 49.0 °F /  9.4 °C 30.1in /  1019.2hPa South 4mph /  6.4km/h 3mph /  4.8km/h 44% 0.000in /  0mm 346.00 W/m2
09:09 73.0 °F /  22.8 °C 49.0 °F /  9.4 °C 30.1in /  1019.2hPa South 4mph /  6.4km/h 3mph /  4.8km/h 44% 0.000in /  0mm 364.00 W/m2
09:14 74.0 °F /  23.3 °C 49.0 °F /  9.4 °C 30.1in /  1019.2hPa South 2mph /  3.2km/h 3mph /  4.8km/h 42% 0.000in /  0mm 378.00 W/m2
09:19 74.0 °F /  23.3 °C 50.0 °F /  10 °C 30.1in /  1019.2hPa South 2mph /  3.2km/h 2mph /  3.2km/h 43% 0.000in /  0mm 396.00 W/m2
09:24 75.0 °F /  23.9 °C 49.0 °F /  9.4 °C 30.1in /  1019.2hPa South 2mph /  3.2km/h 2mph /  3.2km/h 41% 0.000in /  0mm 415.00 W/m2
09:29 75.0 °F /  23.9 °C 50.0 °F /  10 °C 30.1in /  1019.2hPa Calm   2mph /  3.2km/h 42% 0.000in /  0mm 434.00 W/m2
09:34 76.0 °F /  24.4 °C 51.0 °F /  10.6 °C 30.1in /  1019.2hPa South 2mph /  3.2km/h   43% 0.000in /  0mm 452.00 W/m2
09:39 76.0 °F /  24.4 °C 51.0 °F /  10.6 °C 30.1in /  1019.2hPa South 2mph /  3.2km/h 2mph /  3.2km/h 41% 0.000in /  0mm 468.00 W/m2
09:44 77.0 °F /  25 °C 52.0 °F /  11.1 °C 30.1in /  1019.2hPa South 2mph /  3.2km/h 2mph /  3.2km/h 42% 0.000in /  0mm 480.00 W/m2
09:49 78.0 °F /  25.6 °C 52.0 °F /  11.1 °C 30.1in /  1019.2hPa South 2mph /  3.2km/h 2mph /  3.2km/h 41% 0.000in /  0mm 496.00 W/m2
09:54 79.0 °F /  26.1 °C 53.0 °F /  11.7 °C 30.1in /  1019.2hPa Calm   2mph /  3.2km/h 41% 0.000in /  0mm 508.00 W/m2
09:59 79.0 °F /  26.1 °C 52.0 °F /  11.1 °C 30.1in /  1019.2hPa ESE 6mph /  9.7km/h 3mph /  4.8km/h 39% 0.000in /  0mm 517.00 W/m2
10:04 80.0 °F /  26.7 °C 52.0 °F /  11.1 °C 30.1in /  1019.2hPa SSE 4mph /  6.4km/h 6mph /  9.7km/h 38% 0.000in /  0mm 524.00 W/m2
10:09 81.0 °F /  27.2 °C 52.0 °F /  11.1 °C 30.1in /  1019.2hPa SSW 6mph /  9.7km/h 4mph /  6.4km/h 37% 0.000in /  0mm 527.00 W/m2
10:14 81.0 °F /  27.2 °C 52.0 °F /  11.1 °C 30.1in /  1019.2hPa SW 5mph /  8km/h 6mph /  9.7km/h 36% 0.000in /  0mm 555.00 W/m2
10:19 82.0 °F /  27.8 °C 52.0 °F /  11.1 °C 30.1in /  1019.2hPa SW 6mph /  9.7km/h 6mph /  9.7km/h 35% 0.000in /  0mm 566.00 W/m2
10:24 83.0 °F /  28.3 °C 52.0 °F /  11.1 °C 30.1in /  1019.2hPa SW 4mph /  6.4km/h 3mph /  4.8km/h 35% 0.000in /  0mm 584.00 W/m2
10:29 83.0 °F /  28.3 °C 51.0 °F /  10.6 °C 30.1in /  1019.2hPa SSE 6mph /  9.7km/h 2mph /  3.2km/h 34% 0.000in /  0mm 599.00 W/m2
10:34 84.0 °F /  28.9 °C 51.0 °F /  10.6 °C 30.1in /  1019.2hPa SSE 4mph /  6.4km/h 6mph /  9.7km/h 32% 0.000in /  0mm 610.00 W/m2
10:39 85.0 °F /  29.4 °C 51.0 °F /  10.6 °C 30.1in /  1019.2hPa SW 6mph /  9.7km/h 3mph /  4.8km/h 31% 0.000in /  0mm 629.00 W/m2
10:44 85.0 °F /  29.4 °C 52.0 °F /  11.1 °C 30.1in /  1019.2hPa SW 2mph /  3.2km/h 6mph /  9.7km/h 32% 0.000in /  0mm 640.00 W/m2
10:49 86.0 °F /  30 °C 51.0 °F /  10.6 °C 30.1in /  1019.2hPa SW 4mph /  6.4km/h 2mph /  3.2km/h 30% 0.000in /  0mm 645.00 W/m2
10:54 87.0 °F /  30.6 °C 51.0 °F /  10.6 °C 30.0in /  1015.8hPa SW 2mph /  3.2km/h 3mph /  4.8km/h 30% 0.000in /  0mm 659.00 W/m2
10:59 87.0 °F /  30.6 °C 52.0 °F /  11.1 °C 30.0in /  1015.8hPa SW 2mph /  3.2km/h 2mph /  3.2km/h 31% 0.000in /  0mm 664.00 W/m2
11:04 88.0 °F /  31.1 °C 52.0 °F /  11.1 °C 30.0in /  1015.8hPa Calm   2mph /  3.2km/h 30% 0.000in /  0mm 671.00 W/m2
11:09 88.0 °F /  31.1 °C 52.0 °F /  11.1 °C 30.0in /  1015.8hPa SSW 2mph /  3.2km/h 1mph /  1.6km/h 30% 0.000in /  0mm 686.00 W/m2
11:14 89.0 °F /  31.7 °C 51.0 °F /  10.6 °C 30.0in /  1015.8hPa SSW 4mph /  6.4km/h 2mph /  3.2km/h 28% 0.000in /  0mm 689.00 W/m2
11:19 89.0 °F /  31.7 °C 51.0 °F /  10.6 °C 30.0in /  1015.8hPa SSW 4mph /  6.4km/h 3mph /  4.8km/h 27% 0.000in /  0mm 698.00 W/m2
11:24 89.0 °F /  31.7 °C 51.0 °F /  10.6 °C 30.0in /  1015.8hPa SW 9mph /  14.5km/h 3mph /  4.8km/h 27% 0.000in /  0mm 705.00 W/m2
11:29 90.0 °F /  32.2 °C 51.0 °F /  10.6 °C 30.0in /  1015.8hPa SSE 6mph /  9.7km/h 9mph /  14.5km/h 27% 0.000in /  0mm 708.00 W/m2
11:34 90.0 °F /  32.2 °C 51.0 °F /  10.6 °C 30.0in /  1015.8hPa West 6mph /  9.7km/h 6mph /  9.7km/h 26% 0.000in /  0mm 714.00 W/m2
11:39 90.0 °F /  32.2 °C 52.0 °F /  11.1 °C 30.0in /  1015.8hPa SE 7mph /  11.3km/h 7mph /  11.3km/h 27% 0.000in /  0mm 719.00 W/m2
11:44 90.0 °F /  32.2 °C 51.0 °F /  10.6 °C 30.0in /  1015.8hPa WSW 7mph /  11.3km/h 7mph /  11.3km/h 26% 0.000in /  0mm 729.00 W/m2
11:49 91.0 °F /  32.8 °C 50.0 °F /  10 °C 30.0in /  1015.8hPa West 7mph /  11.3km/h 7mph /  11.3km/h 25% 0.000in /  0mm 731.00 W/m2
11:54 91.0 °F /  32.8 °C 50.0 °F /  10 °C 30.0in /  1015.8hPa SW 6mph /  9.7km/h 7mph /  11.3km/h 25% 0.000in /  0mm 744.00 W/m2
11:59 91.0 °F /  32.8 °C 50.0 °F /  10 °C 30.0in /  1015.8hPa WSW 6mph /  9.7km/h 6mph /  9.7km/h 25% 0.000in /  0mm 751.00 W/m2
12:04 91.0 °F /  32.8 °C 50.0 °F /  10 °C 30.0in /  1015.8hPa West 9mph /  14.5km/h 6mph /  9.7km/h 25% 0.000in /  0mm 751.00 W/m2
12:09 91.0 °F /  32.8 °C 50.0 °F /  10 °C 30.0in /  1015.8hPa WSW 9mph /  14.5km/h 9mph /  14.5km/h 24% 0.000in /  0mm 758.00 W/m2
12:14 91.0 °F /  32.8 °C 51.0 °F /  10.6 °C 30.0in /  1015.8hPa SSW 9mph /  14.5km/h 9mph /  14.5km/h 25% 0.000in /  0mm 756.00 W/m2
12:19 92.0 °F /  33.3 °C 50.0 °F /  10 °C 30.0in /  1015.8hPa West 9mph /  14.5km/h 9mph /  14.5km/h 24% 0.000in /  0mm 759.00 W/m2
12:24 91.0 °F /  32.8 °C 48.0 °F /  8.9 °C 30.0in /  1015.8hPa WSW 13mph /  20.9km/h 13mph /  20.9km/h 23% 0.000in /  0mm 765.00 W/m2
12:29 91.0 °F /  32.8 °C 48.0 °F /  8.9 °C 30.0in /  1015.8hPa West 16mph /  25.7km/h 10mph /  16.1km/h 23% 0.000in /  0mm 765.00 W/m2
12:34 91.0 °F /  32.8 °C 48.0 °F /  8.9 °C 30.0in /  1015.8hPa West 16mph /  25.7km/h 16mph /  25.7km/h 23% 0.000in /  0mm 766.00 W/m2
12:39 91.0 °F /  32.8 °C 48.0 °F /  8.9 °C 30.0in /  1015.8hPa West 13mph /  20.9km/h 13mph /  20.9km/h 23% 0.000in /  0mm 765.00 W/m2
12:44 91.0 °F /  32.8 °C 48.0 °F /  8.9 °C 30.0in /  1015.8hPa WSW 16mph /  25.7km/h 13mph /  20.9km/h 23% 0.000in /  0mm 768.00 W/m2
12:49 91.0 °F /  32.8 °C 50.0 °F /  10 °C 30.0in /  1015.8hPa WNW 16mph /  25.7km/h 16mph /  25.7km/h 25% 0.000in /  0mm 782.00 W/m2
12:54 91.0 °F /  32.8 °C 49.0 °F /  9.4 °C 30.0in /  1015.8hPa WNW 14mph /  22.5km/h 14mph /  22.5km/h 24% 0.000in /  0mm 779.00 W/m2
12:59 91.0 °F /  32.8 °C 49.0 °F /  9.4 °C 30.0in /  1015.8hPa SW 14mph /  22.5km/h 14mph /  22.5km/h 24% 0.000in /  0mm 779.00 W/m2
13:04 90.0 °F /  32.2 °C 50.0 °F /  10 °C 30.0in /  1015.8hPa West 9mph /  14.5km/h 13mph /  20.9km/h 25% 0.000in /  0mm 773.00 W/m2
13:09 91.0 °F /  32.8 °C 50.0 °F /  10 °C 30.0in /  1015.8hPa SSW 7mph /  11.3km/h 9mph /  14.5km/h 25% 0.000in /  0mm 775.00 W/m2
13:14 91.0 °F /  32.8 °C 50.0 °F /  10 °C 30.0in /  1015.8hPa WSW 13mph /  20.9km/h 8mph /  12.9km/h 25% 0.000in /  0mm 772.00 W/m2
13:19 91.0 °F /  32.8 °C 50.0 °F /  10 °C 30.0in /  1015.8hPa WSW 12mph /  19.3km/h 13mph /  20.9km/h 25% 0.000in /  0mm 772.00 W/m2
13:24 91.0 °F /  32.8 °C 50.0 °F /  10 °C 30.0in /  1015.8hPa WSW 13mph /  20.9km/h 13mph /  20.9km/h 25% 0.000in /  0mm 770.00 W/m2
13:29 91.0 °F /  32.8 °C 51.0 °F /  10.6 °C 30.0in /  1015.8hPa West 7mph /  11.3km/h 7mph /  11.3km/h 26% 0.000in /  0mm 768.00 W/m2
13:34 91.0 °F /  32.8 °C 51.0 °F /  10.6 °C 30.0in /  1015.8hPa SW 9mph /  14.5km/h 7mph /  11.3km/h 26% 0.000in /  0mm 766.00 W/m2
13:39 91.0 °F /  32.8 °C 51.0 °F /  10.6 °C 30.0in /  1015.8hPa West 9mph /  14.5km/h 9mph /  14.5km/h 26% 0.000in /  0mm 763.00 W/m2
13:44 91.0 °F /  32.8 °C 51.0 °F /  10.6 °C 30.0in /  1015.8hPa WSW 9mph /  14.5km/h 9mph /  14.5km/h 26% 0.000in /  0mm 758.00 W/m2
13:49 91.0 °F /  32.8 °C 53.0 °F /  11.7 °C 30.0in /  1015.8hPa SSW 13mph /  20.9km/h 9mph /  14.5km/h 27% 0.000in /  0mm 768.00 W/m2
13:54 91.0 °F /  32.8 °C 51.0 °F /  10.6 °C 30.0in /  1015.8hPa West 7mph /  11.3km/h 13mph /  20.9km/h 25% 0.000in /  0mm 759.00 W/m2
13:59 91.0 °F /  32.8 °C 52.0 °F /  11.1 °C 30.0in /  1015.8hPa SW 7mph /  11.3km/h 7mph /  11.3km/h 26% 0.000in /  0mm 756.00 W/m2
14:04 91.0 °F /  32.8 °C 51.0 °F /  10.6 °C 30.0in /  1015.8hPa West 9mph /  14.5km/h 9mph /  14.5km/h 25% 0.000in /  0mm 759.00 W/m2
14:09 91.0 °F /  32.8 °C 52.0 °F /  11.1 °C 30.0in /  1015.8hPa WNW 6mph /  9.7km/h 9mph /  14.5km/h 26% 0.000in /  0mm 756.00 W/m2
14:14 91.0 °F /  32.8 °C 51.0 °F /  10.6 °C 30.0in /  1015.8hPa WSW 13mph /  20.9km/h 9mph /  14.5km/h 25% 0.000in /  0mm 754.00 W/m2
14:19 91.0 °F /  32.8 °C 52.0 °F /  11.1 °C 30.0in /  1015.8hPa SW 9mph /  14.5km/h 13mph /  20.9km/h 26% 0.000in /  0mm 745.00 W/m2
14:24 91.0 °F /  32.8 °C 52.0 °F /  11.1 °C 30.0in /  1015.8hPa WSW 7mph /  11.3km/h 9mph /  14.5km/h 26% 0.000in /  0mm 745.00 W/m2
14:29 92.0 °F /  33.3 °C 52.0 °F /  11.1 °C 30.0in /  1015.8hPa WSW 9mph /  14.5km/h 7mph /  11.3km/h 26% 0.000in /  0mm 738.00 W/m2
14:34 92.0 °F /  33.3 °C 52.0 °F /  11.1 °C 30.0in /  1015.8hPa WSW 11mph /  17.7km/h 9mph /  14.5km/h 26% 0.000in /  0mm 738.00 W/m2
14:39 91.0 °F /  32.8 °C 52.0 °F /  11.1 °C 30.0in /  1015.8hPa WSW 10mph /  16.1km/h 10mph /  16.1km/h 26% 0.000in /  0mm 724.00 W/m2
14:44 92.0 °F /  33.3 °C 52.0 °F /  11.1 °C 30.0in /  1015.8hPa SW 7mph /  11.3km/h 9mph /  14.5km/h 26% 0.000in /  0mm 719.00 W/m2
14:49 92.0 °F /  33.3 °C 52.0 °F /  11.1 °C 30.0in /  1015.8hPa WSW 2mph /  3.2km/h 2mph /  3.2km/h 26% 0.000in /  0mm 715.00 W/m2
14:54 92.0 °F /  33.3 °C 52.0 °F /  11.1 °C 30.0in /  1015.8hPa West 4mph /  6.4km/h 3mph /  4.8km/h 26% 0.000in /  0mm 707.00 W/m2
14:59 92.0 °F /  33.3 °C 53.0 °F /  11.7 °C 30.0in /  1015.8hPa West 9mph /  14.5km/h 5mph /  8km/h 26% 0.000in /  0mm 705.00 W/m2
15:04 93.0 °F /  33.9 °C 52.0 °F /  11.1 °C 30.0in /  1015.8hPa WSW 9mph /  14.5km/h 9mph /  14.5km/h 25% 0.000in /  0mm 701.00 W/m2
15:09 93.0 °F /  33.9 °C 52.0 °F /  11.1 °C 30.0in /  1015.8hPa WNW 7mph /  11.3km/h 7mph /  11.3km/h 25% 0.000in /  0mm 691.00 W/m2
15:14 93.0 °F /  33.9 °C 53.0 °F /  11.7 °C 30.0in /  1015.8hPa East 6mph /  9.7km/h 6mph /  9.7km/h 26% 0.000in /  0mm 680.00 W/m2
15:19 94.0 °F /  34.4 °C 51.0 °F /  10.6 °C 30.0in /  1015.8hPa SW 9mph /  14.5km/h 5mph /  8km/h 24% 0.000in /  0mm 670.00 W/m2
15:24 94.0 °F /  34.4 °C 53.0 °F /  11.7 °C 30.0in /  1015.8hPa SE 5mph /  8km/h 9mph /  14.5km/h 25% 0.000in /  0mm 661.00 W/m2
15:29 94.0 °F /  34.4 °C 53.0 °F /  11.7 °C 30.0in /  1015.8hPa SSW 6mph /  9.7km/h 6mph /  9.7km/h 25% 0.000in /  0mm 645.00 W/m2
15:34 94.0 °F /  34.4 °C 52.0 °F /  11.1 °C 30.0in /  1015.8hPa WSW 4mph /  6.4km/h 3mph /  4.8km/h 24% 0.000in /  0mm 626.00 W/m2
15:39 94.0 °F /  34.4 °C 52.0 °F /  11.1 °C 30.0in /  1015.8hPa SSW 13mph /  20.9km/h 7mph /  11.3km/h 24% 0.000in /  0mm 626.00 W/m2
15:42 94.0 °F /  34.4 °C 53.0 °F /  11.7 °C 30.0in /  1015.8hPa SW 6mph /  9.7km/h 13mph /  20.9km/h 25% 0.000in /  0mm 612.00 W/m2
15:49 94.0 °F /  34.4 °C 53.0 °F /  11.7 °C 30.0in /  1015.8hPa SW 6mph /  9.7km/h 6mph /  9.7km/h 25% 0.000in /  0mm 598.00 W/m2
15:54 94.0 °F /  34.4 °C 54.0 °F /  12.2 °C 30.0in /  1015.8hPa West 7mph /  11.3km/h 6mph /  9.7km/h 26% 0.000in /  0mm 587.00 W/m2
15:59 94.0 °F /  34.4 °C 53.0 °F /  11.7 °C 30.0in /  1015.8hPa South 7mph /  11.3km/h 7mph /  11.3km/h 25% 0.000in /  0mm 578.00 W/m2
16:04 95.0 °F /  35 °C 54.0 °F /  12.2 °C 30.0in /  1015.8hPa SSE 7mph /  11.3km/h 7mph /  11.3km/h 26% 0.000in /  0mm 568.00 W/m2
16:09 95.0 °F /  35 °C 53.0 °F /  11.7 °C 30.0in /  1015.8hPa WSW 9mph /  14.5km/h 7mph /  11.3km/h 25% 0.000in /  0mm 555.00 W/m2
16:14 95.0 °F /  35 °C 53.0 °F /  11.7 °C 30.0in /  1015.8hPa SW 9mph /  14.5km/h 9mph /  14.5km/h 24% 0.000in /  0mm 541.00 W/m2
16:19 95.0 °F /  35 °C 52.0 °F /  11.1 °C 30.0in /  1015.8hPa West 9mph /  14.5km/h 9mph /  14.5km/h 24% 0.000in /  0mm 526.00 W/m2
16:23 95.0 °F /  35 °C 52.0 °F /  11.1 °C 30.0in /  1015.8hPa SW 9mph /  14.5km/h 9mph /  14.5km/h 24% 0.000in /  0mm 513.00 W/m2
16:29 95.0 °F /  35 °C 52.0 °F /  11.1 °C 30.0in /  1015.8hPa West 6mph /  9.7km/h 9mph /  14.5km/h 24% 0.000in /  0mm 499.00 W/m2
16:34 95.0 °F /  35 °C 52.0 °F /  11.1 °C 30.0in /  1015.8hPa West 6mph /  9.7km/h 3mph /  4.8km/h 24% 0.000in /  0mm 476.00 W/m2
16:39 95.0 °F /  35 °C 53.0 °F /  11.7 °C 30.0in /  1015.8hPa NW 6mph /  9.7km/h 6mph /  9.7km/h 25% 0.000in /  0mm 466.00 W/m2
16:44 94.0 °F /  34.4 °C 53.0 °F /  11.7 °C 30.0in /  1015.8hPa West 6mph /  9.7km/h 6mph /  9.7km/h 25% 0.000in /  0mm 450.00 W/m2
16:49 95.0 °F /  35 °C 54.0 °F /  12.2 °C 30.0in /  1015.8hPa West 9mph /  14.5km/h 6mph /  9.7km/h 26% 0.000in /  0mm 436.00 W/m2
16:54 95.0 °F /  35 °C 54.0 °F /  12.2 °C 30.0in /  1015.8hPa NE 7mph /  11.3km/h 9mph /  14.5km/h 26% 0.000in /  0mm 415.00 W/m2
El Dorado Weather
Compliments of Weather Underground - 2 mb